Location: Lancaster
(34.6980°N, 118.1360°W)
Time: 15:15:35
(UTC-08:00)

N. Korean satellite - Pass Details

Date: 11 November 2017
Orbit: 460 x 514 km, 97.2° (Epoch: 21 November)

Event Time Altitude Azimuth Distance (km) Brightness Sun altitude
Rises 18:29:59 0° 190° (S) 2,468 10.4 -20.7°
Reaches altitude 10° 18:32:12 10° 202° (SSW) 1,600 9.5 -21.2°
Maximum altitude 18:35:11 28° 263° (W) 902 8.6 -21.8°
Drops below altitude 10° 18:38:13 10° 324° (NW) 1,619 9.6 -22.4°
Sets 18:40:28 0° 336° (NNW) 2,506 10.4 -22.9°
